Wind_Speed
6 8 7 7 8 6 2 2 4 3 3 6 5 3 3 3 3 1 1 1 2 1 3 4 5 9 9 9 9 10 9 7 6 4 4 4 4 4 5 7 8 12 16 19 20 22 22 22 24 25 27 29 30 29 29 29 29 28 28 27 25 23 24
5 5 7 5 3 6 6 4 5 3 3 4 4 3 2 3 1 1 1 1 2 0 1 1 6 10 11 10 9 10 10 9 7 5 4 4 4 4 4 4 6 11 17 20 21 22 23 24 25 27 28 29 29 29 29 29 29 29 29 28 26 24 24
3 2 7 4 3 2 4 6 5 4 3 1 1 3 2 2 1 2 2 1 2 2 2 2 6 9 11 11 10 10 10 10 8 5 5 5 4 4 4 4 4 8 14 19 22 23 23 25 25 26 27 26 26 27 28 28 28 29 28 27 26 25 24
2 4 4 4 1 3 3 5 5 2 2 4 2 2 3 4 2 2 0 1 2 3 2 2 5 7 9 11 11 9 8 8 8 6 5 5 5 3 3 4 3 3 7 15 21 23 24 25 25 25 25 24 25 26 26 25 25 26 27 27 27 26 25
1 1 1 5 7 4 4 5 4 1 2 3 3 2 2 4 4 3 2 1 3 2 1 2 4 6 7 9 10 8 6 6 6 5 5 4 3 3 3 2 2 3 1 5 12 18 22 24 25 24 25 25 25 25 25 24 24 25 26 27 27 27 26
1 4 4 4 6 6 6 6 6 5 3 4 4 1 1 2 3 3 4 2 4 1 1 1 4 6 6 8 9 7 6 7 6 5 5 5 4 4 5 4 4 5 5 4 5 11 17 21 22 23 24 24 24 24 24 23 23 24 24 25 27 27 27
3 6 5 1 3 3 5 4 4 5 4 5 6 4 3 2 2 1 3 1 3 2 1 1 5 6 7 8 8 8 8 8 7 7 7 7 6 6 8 8 7 7 6 6 6 9 13 16 19 20 22 23 23 22 21 21 22 22 22 23 24 25 26
4 6 6 4 2 4 5 2 2 4 3 3 5 5 4 4 3 2 3 0 3 1 1 3 6 6 6 6 5 7 8 7 8 8 8 7 7 7 8 8 9 10 11 10 8 9 11 12 14 17 19 21 22 22 22 23 23 22 22 22 23 23 25
4 4 5 5 5 3 2 1 2 1 4 7 5 3 4 3 4 4 4 2 3 2 4 5 6 7 6 5 5 6 7 7 7 7 6 6 6 6 7 7 8 10 11 11 10 9 10 12 14 16 18 20 21 23 25 26 24 22 21 22 23 24 25
3 3 2 1 3 3 1 0 1 1 5 8 6 3 4 2 4 4 5 3 3 6 8 6 6 7 6 6 6 7 7 6 6 5 5 5 5 6 7 7 6 7 8 10 10 8 8 9 11 14 17 18 20 23 24 22 19 18 18 20 21 23 24
4 6 6 4 2 1 1 0 1 1 3 5 6 5 3 4 4 3 3 5 9 11 10 9 9 9 8 6 6 7 8 6 5 4 5 6 7 7 6 6 6 6 7 9 11 11 11 10 10 12 14 14 16 18 17 15 14 15 17 18 18 18 20
4 6 6 6 2 2 1 1 1 1 2 5 7 4 5 7 7 2 5 8 13 14 13 12 11 9 9 8 7 7 8 6 5 6 6 8 9 8 5 4 5 6 7 9 12 13 14 14 12 10 10 10 10 10 8 8 10 13 14 14 13 11 12
1 0 5 5 1 2 2 3 3 1 1 5 6 3 4 7 5 4 9 12 12 13 14 12 10 9 10 10 8 8 8 7 7 7 8 9 10 8 5 5 5 7 7 8 11 13 15 14 11 9 9 8 8 7 6 3 5 9 11 11 9 9 9
5 7 7 7 5 4 5 7 6 5 2 3 6 4 3 4 2 4 13 13 7 7 11 11 9 8 8 8 7 8 9 9 8 8 8 9 8 7 6 6 6 7 8 10 12 14 15 14 11 11 11 10 11 11 9 6 2 6 9 6 4 7 10
6 8 10 9 6 5 7 8 9 8 6 5 5 5 5 6 5 7 13 11 5 5 9 10 9 8 8 9 9 8 9 9 9 9 8 8 7 6 6 7 7 6 8 11 13 14 15 15 15 15 15 15 15 14 13 12 9 6 6 7 10 10 6
3 6 9 10 7 5 7 9 10 8 5 2 1 1 3 5 8 11 11 8 6 8 11 11 10 10 11 11 10 9 8 9 10 10 9 7 6 5 5 7 9 8 8 11 13 15 16 18 19 19 19 19 18 17 17 16 14 12 14 16 19 18 13
3 6 8 7 6 7 5 5 6 5 3 0 0 2 1 7 12 11 6 5 8 12 13 13 13 12 12 11 10 9 8 9 9 10 10 9 7 6 4 5 8 10 10 12 15 16 17 19 21 20 22 22 21 20 20 19 17 17 17 17 18 19 17
2 8 8 5 5 4 2 5 3 4 4 1 2 1 2 4 5 3 3 6 11 13 13 14 14 13 11 9 8 7 8 8 9 9 9 10 9 7 5 5 7 11 13 15 18 19 19 21 22 22 24 25 24 23 24 23 23 22 21 21 20 21 19
1 5 6 5 1 3 5 5 4 3 5 4 6 5 4 3 2 3 9 11 13 13 11 12 12 11 9 8 7 7 7 8 10 10 9 9 9 8 7 6 8 12 15 17 20 21 21 22 24 24 24 25 26 26 25 25 24 24 24 24 24 24 22
1 2 5 2 4 6 5 6 5 3 2 3 6 5 4 6 3 5 12 11 11 13 11 10 10 9 9 8 5 6 6 6 8 10 9 9 9 9 10 10 12 14 17 19 21 21 21 22 23 23 23 23 25 25 24 24 24 23 24 25 24 24 23
2 3 1 2 3 4 5 5 4 2 2 3 2 2 3 5 3 5 12 13 13 14 12 10 9 10 10 7 4 4 6 6 7 8 10 11 10 10 13 15 17 18 20 21 22 21 21 21 20 20 20 21 22 23 23 22 22 22 23 23 22 22 22
2 4 1 3 3 2 3 5 6 3 2 4 3 3 3 5 1 6 12 15 15 14 13 12 11 10 8 6 3 3 5 6 7 9 10 13 14 14 16 18 19 20 21 22 22 22 22 21 20 19 19 19 21 22 21 21 21 21 21 21 20 20 20
2 4 3 2 1 3 5 6 8 6 2 4 4 4 4 5 2 5 10 15 16 15 14 14 12 10 7 6 5 4 5 7 8 9 10 13 16 16 18 20 21 21 23 24 23 23 23 21 20 19 18 18 20 21 20 20 21 21 20 19 18 17 17
2 4 3 3 2 2 4 6 8 7 3 1 5 3 5 5 4 5 8 13 14 15 15 13 10 7 6 7 5 5 7 9 10 11 12 14 17 17 19 21 23 23 24 24 23 22 22 20 18 17 16 17 19 19 18 19 20 19 18 16 16 15 14
2 3 2 1 1 2 4 7 8 7 4 4 4 3 6 3 4 5 7 10 11 12 13 10 6 3 4 8 8 7 9 10 10 12 14 16 18 19 20 22 24 24 24 23 22 20 19 17 16 15 14 16 17 16 16 18 18 16 14 13 13 13 12
2 2 2 1 2 2 3 7 8 4 1 1 3 5 4 3 5 6 7 8 8 9 8 7 6 6 9 12 10 9 9 8 9 12 15 16 17 18 20 22 24 25 23 22 21 18 15 14 13 12 13 16 16 15 15 16 15 13 11 10 10 10 11
1 2 3 2 1 2 4 7 5 3 1 3 4 2 3 2 5 8 7 6 8 9 9 9 10 12 13 13 11 10 9 9 10 11 14 16 16 17 20 21 22 24 23 21 20 17 14 13 11 10 12 15 15 14 14 13 12 11 10 9 9 9 10
2 2 1 1 3 4 5 5 2 1 3 4 3 2 1 2 2 6 6 5 5 9 11 12 13 14 14 14 13 12 10 9 10 9 10 13 15 16 18 20 22 24 24 21 20 17 14 13 12 11 12 14 15 15 13 10 9 9 10 10 9 10 10
2 2 4 4 4 4 4 2 2 4 5 4 2 3 3 2 1 2 6 6 6 7 11 13 12 12 14 14 15 15 13 13 14 13 12 13 15 17 18 20 22 23 24 22 21 18 15 14 13 12 12 13 14 14 12 9 8 8 8 9 10 11 11
0 1 2 2 3 5 6 5 3 4 5 5 3 2 1 2 1 2 5 8 8 8 10 12 10 9 11 11 9 9 10 12 15 17 15 14 16 18 18 20 21 22 22 21 21 19 17 14 13 12 11 10 11 11 9 8 8 7 7 8 9 10 11
2 1 3 4 4 5 8 8 7 8 8 7 5 5 3 1 2 5 6 7 8 6 6 9 10 10 11 11 8 6 7 8 10 13 13 14 16 18 19 19 20 20 19 19 18 18 16 14 12 12 11 10 9 7 6 6 6 6 6 7 8 9 10
1 2 5 5 2 2 6 7 7 8 8 8 7 7 5 5 4 6 8 9 8 7 5 6 9 10 10 11 11 8 7 8 9 10 11 13 15 17 19 19 19 18 18 18 17 17 16 14 12 11 11 11 9 7 6 6 5 5 6 7 7 8 8
2 2 3 4 3 3 7 8 7 6 6 6 8 9 8 8 8 6 6 8 9 10 10 9 10 11 10 11 13 11 8 10 13 13 12 12 14 16 19 19 18 18 18 18 17 17 16 15 13 13 13 11 10 9 9 8 6 7 8 8 8 8 8
2 3 2 1 1 1 3 5 6 6 6 7 9 10 10 10 8 7 6 5 4 9 14 14 13 11 9 12 15 14 12 15 20 21 20 19 18 19 19 19 18 17 17 17 17 17 16 14 13 13 12 11 9 9 9 8 8 9 9 9 9 9 9
2 4 4 2 3 2 3 4 4 4 5 8 10 9 8 9 9 8 8 7 5 2 5 9 13 13 12 14 15 13 13 19 24 25 27 27 25 23 21 20 19 17 16 16 16 16 15 13 11 10 10 9 8 7 6 6 7 8 9 10 10 11 10
1 3 4 4 2 1 3 4 3 2 4 8 7 7 7 8 10 11 10 9 7 5 2 2 5 11 15 18 18 14 15 20 24 26 28 29 28 25 24 22 21 19 18 16 16 16 15 13 11 10 9 8 6 5 5 4 4 6 7 9 9 10 10
1 1 3 4 3 3 3 3 4 3 2 5 5 4 4 6 9 11 11 11 12 11 7 6 6 4 8 16 20 20 19 22 26 28 28 26 25 26 25 22 20 19 18 17 17 16 15 12 11 10 9 7 6 5 4 3 4 5 6 6 7 8 8
Wind_Direction
183 184 178 157 155 160 146 121 157 198 167 128 115 106 99 100 116 196 212 285 307 264 305 350 94 124 131 137 144 145 147 150 153 156 147 151 154 140 151 171 178 183 186 190 195 196 196 196 196 197 198 201 203 202 203 204 206 207 208 210 211 212 212
230 183 139 137 169 145 133 172 191 170 77 84 105 109 62 56 115 264 303 278 289 261 275 35 111 133 148 155 160 158 159 165 170 169 159 165 167 147 138 146 171 186 185 188 193 195 196 198 199 200 201 203 205 206 207 206 207 208 210 211 212 214 214
287 42 105 94 354 74 143 167 156 123 127 173 108 120 135 106 119 277 314 317 259 190 197 181 147 152 158 159 160 161 168 173 175 175 170 175 176 155 138 139 172 192 190 190 191 192 196 198 201 202 201 202 205 208 211 211 210 212 211 212 213 216 218
318 19 89 145 168 20 57 128 129 102 140 162 154 135 151 138 146 231 258 355 257 214 222 201 166 159 154 154 159 161 166 172 175 177 175 183 186 157 139 159 171 188 201 199 194 192 194 196 201 202 199 201 205 209 212 212 213 213 213 214 215 217 220
102 137 160 177 168 133 105 130 150 146 76 122 135 88 85 125 143 177 149 276 259 229 267 235 153 143 153 156 154 154 159 164 163 157 147 158 168 136 124 154 139 89 93 201 195 191 192 195 197 198 198 200 204 207 211 212 213 214 215 216 218 220 221
126 228 236 191 179 164 144 154 173 169 131 120 128 143 308 110 130 161 152 195 262 264 304 264 131 130 145 141 130 130 141 147 140 122 118 127 136 131 123 107 92 84 71 79 146 172 182 189 192 194 197 199 202 206 209 212 215 217 218 218 219 221 222
210 260 276 207 196 171 126 142 165 149 133 122 134 179 209 108 93 109 108 116 280 290 320 129 120 120 126 129 129 130 136 141 135 121 117 120 123 129 127 115 109 113 114 112 120 140 162 176 182 187 192 196 200 203 205 210 216 220 222 222 222 222 222
310 308 324 1 34 91 91 60 73 121 145 134 137 166 161 133 153 137 85 40 266 270 78 111 120 121 128 134 134 132 133 135 132 129 132 135 132 136 136 130 135 142 139 137 136 133 138 149 160 171 183 191 195 199 205 212 218 222 225 225 226 225 225
359 353 356 358 355 25 77 332 341 90 117 105 108 108 80 111 184 150 130 208 245 127 112 126 131 130 136 134 117 116 123 127 130 134 142 139 125 126 133 135 144 145 138 141 149 148 137 132 141 156 170 181 188 198 208 213 216 220 223 226 227 228 228
155 164 179 264 308 321 313 309 333 125 124 120 126 113 86 144 188 144 142 189 181 139 138 146 146 137 137 131 115 113 118 121 128 131 128 119 101 102 116 122 128 130 135 139 136 127 115 111 124 145 158 167 180 195 205 208 210 214 219 224 227 228 229
173 192 219 248 249 250 259 199 75 120 135 117 109 112 143 173 159 158 204 170 152 156 160 160 159 151 147 143 125 118 120 118 115 108 99 95 88 86 98 115 122 122 124 119 112 111 110 111 129 148 150 155 171 188 197 197 200 208 214 218 221 224 227
174 200 244 272 248 187 222 2 44 122 141 109 107 143 189 155 136 197 222 168 157 168 172 165 163 158 152 151 140 127 125 119 108 98 92 95 95 91 92 103 109 109 105 103 112 127 135 141 156 156 141 145 159 168 173 181 197 209 212 212 208 211 224
87 37 307 316 67 118 57 43 35 1 195 139 130 164 182 146 151 206 184 167 167 171 166 159 159 158 153 151 147 136 127 116 106 100 98 100 100 99 95 82 79 89 91 93 104 119 133 147 156 138 122 130 131 117 106 129 204 218 218 217 207 200 221
18 13 356 6 42 58 49 40 31 24 36 126 120 111 97 93 88 161 153 151 153 152 150 150 150 153 148 140 136 132 127 120 113 104 101 103 105 106 101 82 73 81 85 85 89 98 114 130 128 110 103 105 105 100 95 100 169 223 224 226 196 188 224
358 357 2 3 15 58 66 44 26 29 43 59 83 108 105 77 70 118 131 131 128 134 139 140 141 141 140 137 135 132 129 127 121 109 101 105 109 111 110 98 84 76 81 87 87 87 96 103 102 98 96 95 97 95 89 93 111 148 157 121 104 119 169
329 344 3 349 348 44 55 31 14 9 16 45 83 159 149 128 123 125 129 140 159 154 142 137 140 144 146 146 142 137 135 133 127 118 110 105 101 97 106 112 107 95 85 86 87 86 89 94 94 94 94 92 89 86 84 88 93 99 101 94 91 92 91
301 326 350 341 0 37 18 346 349 337 316 270 133 331 46 139 139 140 158 174 155 148 146 144 146 150 152 152 149 143 138 133 126 122 120 111 99 84 73 89 103 101 94 89 89 89 89 91 93 94 94 92 88 87 87 88 86 87 89 90 90 89 85
278 310 334 4 36 43 283 272 269 246 246 182 120 74 95 137 149 151 141 134 139 146 149 147 148 153 154 152 149 140 136 133 126 122 122 118 112 104 90 79 86 93 96 95 92 91 91 92 93 94 93 93 93 92 89 87 86 86 87 88 87 87 86
154 320 7 51 51 252 251 283 304 231 203 147 106 82 56 20 338 129 125 131 142 142 140 141 144 146 140 130 125 124 127 132 130 126 123 121 122 121 114 105 96 97 100 97 93 92 94 95 95 93 91 93 94 92 90 87 84 82 81 79 76 76 77
126 40 41 92 235 264 290 321 349 24 40 60 72 59 9 342 327 142 132 132 134 129 128 137 136 130 120 103 95 109 114 117 125 129 132 131 131 131 128 123 116 110 106 101 98 97 97 98 97 95 95 95 93 90 88 87 83 81 79 74 71 71 70
134 111 30 294 301 328 336 338 349 26 350 337 77 118 294 314 311 151 137 132 132 131 132 133 127 120 114 101 81 92 103 105 109 118 130 134 132 129 126 123 119 115 111 108 107 107 104 101 100 99 98 96 91 86 83 81 79 78 76 72 69 67 65
90 105 68 342 359 320 272 278 287 278 245 231 166 130 306 309 322 145 142 138 138 138 136 135 133 127 123 131 147 122 112 111 104 105 118 125 125 124 122 120 116 114 115 114 114 113 108 105 105 104 102 98 92 85 79 76 74 72 70 71 71 67 64
71 116 147 188 201 244 248 262 284 302 280 217 151 78 320 277 190 146 147 145 144 144 144 145 145 144 148 163 172 149 130 122 117 118 119 117 119 121 122 122 119 116 116 115 114 113 109 106 107 106 103 99 92 84 80 77 73 68 65 67 69 69 67
103 124 166 204 202 256 278 278 290 309 320 134 107 76 279 244 179 153 151 150 150 148 148 150 154 162 166 162 160 146 127 116 115 124 127 124 123 122 121 122 121 119 118 115 110 107 106 106 107 107 103 96 88 82 80 77 70 63 63 65 69 71 72
84 109 151 239 255 272 287 291 296 310 346 61 100 198 239 210 145 145 144 145 150 150 148 150 159 171 139 129 131 128 118 109 108 116 122 125 125 124 124 125 122 118 115 112 106 102 102 105 105 104 102 94 86 81 77 70 64 58 58 62 66 69 69
52 105 118 335 277 247 295 302 299 311 18 154 202 229 238 173 140 136 132 138 145 139 132 128 130 128 117 113 115 115 113 112 113 118 122 123 123 124 124 124 123 117 111 107 103 99 98 100 97 98 99 92 85 80 74 67 62 57 54 56 59 62 63
116 60 57 54 203 237 334 335 331 17 23 248 231 260 310 227 154 131 125 140 143 133 127 124 126 123 115 114 116 112 111 113 113 122 131 130 128 128 125 123 124 120 112 105 102 98 96 95 93 95 97 92 84 78 72 66 62 57 53 49 49 53 56
112 69 67 201 222 260 321 346 342 330 316 278 226 153 340 272 167 127 125 133 137 135 134 132 132 129 125 128 129 123 119 116 108 113 133 135 133 133 128 126 126 122 115 109 104 102 99 96 93 92 93 91 85 78 71 66 61 55 49 45 45 47 48
146 176 219 235 256 283 311 321 258 281 311 306 250 173 155 186 245 139 137 138 139 136 133 130 132 138 142 146 147 144 144 141 137 145 158 154 143 137 132 130 128 124 119 116 111 106 102 98 94 91 89 89 83 75 71 68 62 53 46 43 43 44 43
212 174 240 301 338 339 340 342 318 325 345 344 336 359 117 153 146 112 128 142 149 150 143 135 133 142 146 140 137 140 141 139 144 153 160 155 145 140 136 133 130 126 122 119 115 110 104 100 96 89 84 81 76 70 67 68 66 58 48 44 43 44 41
59 74 323 344 8 4 356 356 357 0 359 352 357 10 355 330 104 105 108 119 130 138 143 135 130 135 136 127 118 116 114 117 132 143 147 149 148 145 142 138 135 131 126 122 120 116 109 102 97 88 80 76 72 66 61 62 62 57 53 52 50 46 42
83 253 288 303 304 13 22 19 7 357 351 348 3 19 14 9 48 95 110 115 115 107 98 107 118 128 135 133 128 123 112 110 119 130 141 150 152 149 147 145 143 138 133 131 129 125 118 112 105 96 89 84 80 77 74 70 68 68 69 69 62 52 44
352 282 302 312 300 349 15 18 12 358 350 1 18 24 27 29 30 44 87 115 133 139 138 139 138 139 145 143 134 129 129 127 127 132 140 150 160 163 160 156 151 145 141 141 137 129 124 120 113 106 101 97 90 85 82 79 80 81 79 73 65 57 50
348 262 265 280 207 256 330 350 360 356 2 34 41 31 28 32 27 20 36 59 115 148 153 157 154 146 150 154 147 143 148 149 147 151 156 165 180 183 171 160 156 152 147 144 138 130 127 124 117 111 107 104 98 92 85 80 75 73 70 64 62 60 56
239 250 239 194 141 172 248 284 329 354 33 52 48 36 32 31 29 33 39 34 31 93 156 165 161 155 155 158 155 151 156 160 162 165 169 177 186 186 174 165 161 157 151 148 142 137 137 133 125 119 116 114 110 102 92 82 72 66 61 56 57 59 57
232 258 213 183 161 197 220 232 279 338 66 75 61 45 44 39 35 40 43 35 27 20 347 244 180 165 160 160 162 163 166 169 171 174 179 183 183 179 174 171 167 160 158 158 155 151 149 146 140 134 128 125 121 110 93 75 62 59 56 54 57 62 59
289 244 187 179 203 231 228 224 251 283 34 80 92 83 69 52 41 41 42 37 31 29 21 355 329 275 191 177 174 173 173 177 179 181 184 185 181 177 177 176 170 167 169 171 168 163 160 157 153 146 139 134 131 120 98 67 47 44 44 49 61 68 64
Height
749 751 752 751 762 779 784 783 788 787 777 780 800 815 815 817 830 836 829 827 824 816 810 802 798 800 800 802 803 803 807 807 808 811 811 810 810 810 811 812 813 814 815 817 819 820 822 824 826 828 829 831 833 835 837 839 841 843 844 846 848 849 851
749 745 749 750 750 760 778 788 781 775 777 781 791 813 827 827 832 835 831 831 829 826 822 811 805 806 805 805 804 803 806 806 808 811 810 810 810 810 811 811 812 813 813 815 817 819 821 823 825 827 828 830 832 834 836 838 840 841 843 845 846 848 850
752 743 751 761 756 751 761 769 765 771 790 795 793 810 825 830 839 841 836 835 829 824 822 815 812 811 807 806 806 806 806 805 807 810 810 810 810 811 812 812 812 813 813 814 815 818 820 822 825 826 828 831 832 834 835 836 839 840 842 844 845 847 849
754 749 756 768 768 759 756 759 763 769 780 787 791 801 807 817 836 842 838 836 828 817 815 813 812 811 807 806 808 808 808 806 807 809 811 811 811 812 813 812 813 813 814 814 814 817 819 821 824 825 828 830 832 834 835 836 838 840 841 843 845 846 848
758 760 761 763 764 764 765 769 773 774 776 779 786 796 801 807 825 836 836 834 826 815 811 810 809 808 806 805 806 808 808 807 808 809 810 811 812 813 813 813 814 814 815 816 815 817 818 820 822 824 827 829 831 833 834 836 837 839 840 842 843 845 847
765 763 759 757 757 758 760 766 769 771 776 781 791 805 809 806 812 822 824 822 820 815 809 806 806 805 804 804 805 808 808 807 808 809 810 811 811 812 813 813 815 816 817 817 817 817 818 819 821 823 826 828 830 832 833 835 837 838 840 842 843 845 846
767 762 757 759 760 756 754 759 763 767 770 773 785 800 808 809 811 815 818 817 817 813 806 804 805 803 803 804 804 806 807 806 807 808 809 810 810 810 810 812 813 814 816 818 818 818 818 819 821 823 826 828 830 831 833 835 836 838 840 841 843 844 845
765 758 755 757 757 756 758 760 763 767 767 767 774 781 791 805 811 812 817 821 819 812 805 805 805 804 805 805 805 806 808 807 807 808 808 809 810 809 809 809 810 811 813 816 818 819 819 820 821 823 825 827 828 830 832 833 835 837 839 840 842 843 844
781 773 771 766 760 760 766 768 767 767 768 769 775 780 785 797 808 806 806 817 821 812 807 808 807 806 807 807 807 808 808 809 809 808 809 809 810 811 810 809 809 810 812 815 817 819 820 821 822 823 824 826 827 829 830 831 833 835 837 839 840 841 842
798 796 791 782 775 772 772 772 770 770 771 767 771 783 789 794 806 806 801 812 821 814 811 812 810 809 809 809 809 809 808 809 809 810 811 811 811 812 811 811 811 811 812 814 817 820 823 824 824 824 824 825 826 827 829 831 833 835 836 838 839 840 841
794 795 789 782 781 779 774 772 772 773 774 768 768 781 788 789 801 809 807 811 818 815 814 815 813 811 811 810 810 810 810 809 809 810 811 812 812 813 813 812 812 813 814 815 817 821 825 826 826 826 826 826 826 827 828 830 832 834 835 837 839 840 842
788 789 786 782 781 779 775 773 773 774 773 769 769 776 780 785 795 806 809 810 812 812 812 812 813 812 811 811 811 810 811 810 810 811 812 813 814 815 814 814 814 814 816 817 819 822 824 825 825 826 827 827 828 829 830 831 832 833 835 837 839 841 843
782 786 787 783 778 777 780 780 777 776 774 769 769 776 782 782 780 786 799 807 808 807 807 808 810 811 810 811 810 809 810 811 811 812 813 815 815 815 816 816 816 816 817 818 820 822 824 825 826 827 828 828 830 831 831 832 833 833 835 837 839 841 843
777 783 786 783 778 776 780 783 782 781 781 775 773 782 789 786 783 786 796 805 806 802 803 806 807 808 808 809 809 810 811 812 813 814 815 816 817 817 817 817 817 817 818 819 821 823 825 825 826 828 829 829 830 831 832 834 835 834 834 836 838 840 842
780 783 782 780 782 780 778 781 782 782 785 785 783 786 789 790 797 799 798 805 809 803 799 803 805 806 808 810 811 812 812 813 814 815 817 818 819 819 818 818 820 820 820 820 822 824 825 825 826 827 828 830 831 832 834 835 835 833 833 835 838 840 841
787 785 785 783 780 777 776 779 784 785 787 789 788 787 786 788 798 805 805 807 808 800 797 803 806 807 810 811 812 813 814 814 815 817 819 820 821 821 820 819 821 823 824 823 824 825 826 826 827 829 829 831 832 833 834 834 834 833 833 834 836 838 839
792 789 790 785 779 782 788 789 790 790 788 788 788 786 785 785 791 800 802 797 793 792 796 802 807 809 811 812 812 813 814 815 816 818 820 821 822 823 823 822 822 824 826 827 827 827 828 828 829 831 832 833 834 835 835 834 835 835 835 836 838 839 840
797 795 789 785 794 804 801 792 790 790 787 786 787 788 789 787 786 788 789 787 788 792 795 800 806 808 809 811 811 811 813 815 818 820 821 822 824 825 826 825 824 824 827 828 829 830 830 830 831 833 834 835 836 837 838 838 839 839 839 840 841 841 842
800 799 793 800 814 809 793 786 788 787 786 785 786 788 789 788 787 785 786 789 791 793 796 800 803 805 808 810 811 812 814 815 817 820 822 823 824 825 826 827 826 827 828 829 830 832 833 834 835 837 838 838 838 838 840 841 842 842 842 842 842 843 843
802 803 806 813 813 798 786 786 785 784 786 786 788 791 790 788 787 786 788 792 793 795 799 801 803 805 808 811 814 815 816 817 817 820 822 823 824 825 826 827 827 829 830 830 831 833 836 836 837 839 840 840 840 840 842 843 843 843 843 843 843 844 845
807 809 811 808 802 796 793 791 789 791 793 792 793 796 793 789 787 786 788 792 794 796 800 803 805 807 810 817 820 817 817 818 819 820 822 823 825 826 826 828 829 830 831 832 833 836 837 838 839 840 841 841 841 842 843 844 845 844 844 844 844 845 845
812 810 812 812 811 809 803 797 793 791 793 794 795 797 794 789 786 785 787 791 793 796 801 804 806 809 816 824 824 819 819 820 820 822 824 825 826 828 828 830 831 832 833 834 836 838 839 840 842 842 842 842 842 843 845 845 845 845 846 846 846 846 846
814 810 813 819 818 809 802 797 791 789 793 793 793 799 798 790 786 786 786 790 793 794 799 802 804 810 820 825 823 819 820 821 821 824 826 827 829 830 831 832 833 835 836 837 838 839 841 843 844 844 844 844 844 846 847 847 847 847 848 848 849 849 849
816 813 814 817 812 803 799 795 789 789 790 788 796 810 803 787 785 788 787 790 792 793 797 801 804 810 816 819 820 820 820 822 824 826 827 829 831 832 833 834 835 836 837 838 839 841 842 844 845 845 845 845 846 848 848 849 849 850 850 851 851 851 852
815 815 814 815 810 802 797 794 790 789 788 792 804 811 798 786 787 788 788 791 793 793 796 800 805 810 811 813 818 821 821 824 826 828 830 831 832 833 835 836 836 837 838 839 840 842 843 844 845 845 845 846 847 848 849 849 851 852 852 852 852 852 852
819 817 815 816 813 804 799 797 792 788 792 799 803 798 792 790 790 787 789 793 794 795 799 802 806 810 810 812 818 821 823 826 828 829 831 832 833 835 836 837 837 838 839 840 841 842 843 844 844 845 845 846 847 848 848 850 851 852 853 853 853 853 853
823 820 818 820 816 807 803 799 791 790 796 798 795 792 793 792 788 788 793 795 794 797 802 804 807 808 810 814 818 821 824 827 830 832 832 832 834 835 835 837 838 838 839 841 842 843 844 844 845 846 846 846 848 848 848 850 851 852 852 853 853 853 853
818 817 817 818 814 809 807 803 798 798 800 797 795 794 793 792 791 791 794 797 797 798 799 803 806 807 810 813 816 820 825 828 832 836 837 836 836 836 836 838 838 838 840 842 843 844 845 845 846 847 847 847 848 849 849 850 851 851 851 852 852 853 853
815 816 814 813 811 811 810 807 805 803 800 798 797 795 792 793 793 792 794 798 800 799 799 802 805 807 810 812 813 815 819 822 827 834 838 839 838 837 838 839 839 839 840 842 844 845 846 847 847 847 848 848 849 850 851 851 851 851 851 851 851 851 852
812 813 812 812 812 812 810 807 805 804 801 798 798 795 792 793 793 793 795 797 799 800 800 801 804 808 811 814 817 818 819 821 825 830 836 839 838 839 840 839 839 840 840 842 844 845 846 847 847 847 848 849 849 850 851 851 852 852 852 851 851 851 851
812 813 813 813 814 814 813 809 804 803 801 800 799 797 797 796 795 795 797 798 800 803 802 800 803 807 810 814 819 822 824 826 829 832 837 839 840 840 841 840 840 841 840 841 843 844 846 847 847 847 848 849 849 850 851 851 852 852 852 852 852 852 852
814 814 815 815 814 814 814 812 809 807 806 803 801 800 801 801 799 799 800 801 803 805 807 808 809 810 812 815 818 821 825 828 831 835 839 841 842 842 842 841 841 841 840 841 842 843 845 846 846 847 848 848 850 850 850 851 851 851 852 852 852 852 852
814 815 815 813 812 812 813 813 813 812 810 806 804 804 804 804 805 804 805 805 804 805 807 810 812 814 816 815 816 820 825 827 830 834 838 841 843 844 843 842 841 840 840 841 842 843 844 845 846 846 847 848 849 850 850 851 851 851 852 852 852 852 852
816 816 815 814 813 814 815 816 815 813 812 809 808 808 807 808 809 809 808 808 808 806 806 807 810 814 816 816 816 819 822 824 827 830 833 838 843 844 843 842 840 840 840 841 842 843 844 844 845 845 846 848 849 849 850 851 851 851 852 852 852 852 852
818 816 816 818 817 816 817 818 816 815 813 811 812 813 813 812 812 811 812 812 812 811 811 811 811 812 813 816 818 819 821 823 825 827 830 835 839 841 841 840 839 839 840 840 841 842 843 844 844 844 845 847 848 849 850 850 850 851 851 851 852 852 852
817 815 816 818 817 815 816 817 817 815 813 812 814 816 815 815 815 814 814 815 816 816 816 817 816 815 814 815 817 819 821 823 824 827 830 832 835 838 838 837 837 837 838 839 840 841 842 843 843 843 845 846 847 848 849 849 850 850 850 851 852 852 852
815 815 816 817 816 816 816 816 816 816 814 813 814 815 814 815 815 815 816 817 818 818 819 820 821 821 819 817 817 818 820 822 824 826 829 832 834 835 834 834 835 835 837 838 839 840 841 841 842 843 844 845 846 848 848 849 850 850 850 851 851 851 852